Powrót do katalogu

STARLINK-11387

AktywnyŁącznośćVLEO
NORAD 62090·PAYLOAD·🇺🇸 United States

Wystrzelony Nov 25, 2024 z Cape Canaveral Space Force Station

Loading…

Następne Przeloty (najbliższe 24 godziny)

TLE

ŚwieżeSource: CelesTrak SupGP

Epoka: Sep 15, 2026, 02:26 UTC

1 62090C 24220C   26258.10187500 -.00050502  00000+0 -39237-3 0  2580
2 62090  43.0002 341.5831 0001559 268.5656 330.8956 15.70856069    13

Śledź STARLINK-11387 w czasie rzeczywistym z AllMySat

Download on the App Store